VJH18G LFPB-LFMD

Flight info

Callsign VJH18G
Flight time N/A
Altitude 35000
Route LATRA DCT LAMUT DCT UTUVA DCT LERGA DCT LIQID DCT LATAM DCT MTL DCT XATEL
Aircraft E35L/M-SABDFGRW/S

Departure

Time 2026-04-21 19:37
Airport Paris-Le Bourget International Airport (LFPB)

Arrival

Time N/A
Airport Cannes Mandelieu Airport (LFMD)
Time Latitude Longitude Altitude Speed Heading
2026-04-21 19:09 48.95819 2.44319 147 ft 0 kts 25°
2026-04-21 19:09 48.95812 2.44278 146 ft 0 kts 25°
2026-04-21 19:30 48.95821 2.44284 146 ft 3 kts 22°
2026-04-21 19:31 48.95866 2.44271 147 ft 8 kts 329°
2026-04-21 19:31 48.95882 2.44194 146 ft 10 kts 217°
2026-04-21 19:31 48.95794 2.44130 143 ft 17 kts 204°
2026-04-21 19:31 48.95702 2.44056 139 ft 8 kts 225°
2026-04-21 19:32 48.95710 2.43948 138 ft 13 kts 295°
2026-04-21 19:32 48.95751 2.43815 135 ft 13 kts 294°
2026-04-21 19:32 48.95790 2.43686 131 ft 9 kts 294°
2026-04-21 19:32 48.95814 2.43606 131 ft 6 kts 294°
2026-04-21 19:33 48.95824 2.43570 131 ft 4 kts 294°
2026-04-21 19:33 48.95877 2.43404 132 ft 20 kts 296°
2026-04-21 19:33 48.95938 2.43200 135 ft 21 kts 294°
2026-04-21 19:33 48.96014 2.43025 138 ft 20 kts 309°
2026-04-21 19:34 48.96105 2.42851 142 ft 21 kts 308°
2026-04-21 19:34 48.96189 2.42690 145 ft 19 kts 309°
2026-04-21 19:34 48.96269 2.42537 146 ft 10 kts 307°
2026-04-21 19:34 48.96272 2.42448 146 ft 13 kts 259°
2026-04-21 19:35 48.96263 2.42281 144 ft 17 kts 268°
2026-04-21 19:35 48.96314 2.42066 140 ft 11 kts 348°
2026-04-21 19:35 48.96369 2.42095 142 ft 7 kts 72°
2026-04-21 19:36 48.96373 2.42132 144 ft 0 kts 85°
2026-04-21 19:37 48.96389 2.42425 149 ft 75 kts 85°
2026-04-21 19:37 48.96451 2.43656 221 ft 147 kts 80°
2026-04-21 19:37 48.96541 2.45340 751 ft 182 kts 82°
2026-04-21 19:37 48.96654 2.47449 1489 ft 220 kts 83°
2026-04-21 19:38 48.96787 2.49836 2659 ft 233 kts 83°
2026-04-21 19:38 48.96924 2.52242 3895 ft 238 kts 82°
2026-04-21 19:38 48.96914 2.53898 4636 ft 246 kts 95°
2026-04-21 19:38 48.96609 2.57381 6159 ft 256 kts 94°
2026-04-21 19:39 48.96412 2.60079 7269 ft 263 kts 94°
2026-04-21 19:39 48.96214 2.62862 8339 ft 272 kts 93°
2026-04-21 19:39 48.96008 2.65756 9339 ft 282 kts 95°
2026-04-21 19:39 48.95362 2.68583 10224 ft 299 kts 122°
2026-04-21 19:40 48.93831 2.70758 11134 ft 310 kts 152°
2026-04-21 19:40 48.91768 2.71646 12038 ft 314 kts 181°
2026-04-21 19:40 48.89662 2.71032 12931 ft 313 kts 210°
2026-04-21 19:40 48.87851 2.69248 13830 ft 318 kts 217°
2026-04-21 19:41 48.85880 2.67597 14707 ft 329 kts 213°
2026-04-21 19:41 48.83844 2.65969 15642 ft 336 kts 213°
2026-04-21 19:41 48.81761 2.64318 16628 ft 340 kts 213°
2026-04-21 19:41 48.79692 2.62680 17578 ft 344 kts 213°
2026-04-21 19:42 48.77558 2.60993 18469 ft 349 kts 214°
2026-04-21 19:42 48.75385 2.59372 19385 ft 358 kts 204°
2026-04-21 19:42 48.72967 2.58495 20185 ft 359 kts 201°
2026-04-21 19:42 48.70546 2.57533 20621 ft 362 kts 202°
2026-04-21 19:43 48.68076 2.56546 20991 ft 366 kts 202°
2026-04-21 19:43 48.65597 2.55553 21153 ft 375 kts 201°
2026-04-21 19:43 48.63059 2.54540 21158 ft 380 kts 202°
2026-04-21 19:43 48.60530 2.53459 21263 ft 386 kts 201°
2026-04-21 19:44 48.57820 2.53210 22422 ft 392 kts 184°
2026-04-21 19:44 48.55165 2.53191 23503 ft 385 kts 189°
2026-04-21 19:44 48.52445 2.53102 24230 ft 393 kts 189°
2026-04-21 19:44 48.49702 2.53013 25075 ft 396 kts 189°
2026-04-21 19:45 48.46967 2.52922 25886 ft 399 kts 189°
2026-04-21 19:45 48.44210 2.52834 26853 ft 398 kts 189°
2026-04-21 19:45 48.41468 2.52745 27886 ft 395 kts 190°
2026-04-21 19:45 48.38741 2.52655 28855 ft 393 kts 190°
2026-04-21 19:46 48.36009 2.52567 29823 ft 391 kts 191°
2026-04-21 19:46 48.33336 2.52424 30730 ft 389 kts 191°
2026-04-21 19:46 48.30575 2.52676 31533 ft 399 kts 180°
2026-04-21 19:46 48.27810 2.53693 32315 ft 407 kts 169°
2026-04-21 19:47 48.25117 2.54991 33056 ft 404 kts 171°
2026-04-21 19:47 48.22415 2.56184 33773 ft 403 kts 171°
2026-04-21 19:47 48.19765 2.57323 34461 ft 402 kts 171°
2026-04-21 19:47 48.17061 2.58472 35051 ft 404 kts 171°
2026-04-21 19:48 48.14331 2.59627 35117 ft 415 kts 171°
2026-04-21 19:48 48.11500 2.60823 35137 ft 428 kts 171°
2026-04-21 19:48 48.08677 2.62015 35127 ft 439 kts 171°
2026-04-21 19:48 48.05633 2.63298 35112 ft 451 kts 170°
2026-04-21 19:49 48.02570 2.64588 35123 ft 462 kts 170°
2026-04-21 19:49 47.96297 2.67227 35118 ft 471 kts 170°
2026-04-21 19:50 47.91053 2.69426 35119 ft 473 kts 170°
2026-04-21 19:50 47.85842 2.71606 35110 ft 476 kts 171°
2026-04-21 19:51 47.79473 2.74265 35116 ft 477 kts 170°
2026-04-21 19:51 47.73083 2.76926 35095 ft 475 kts 171°
2026-04-21 19:52 47.66752 2.79556 35098 ft 470 kts 171°
2026-04-21 19:52 47.60508 2.82143 35112 ft 465 kts 171°
2026-04-21 19:53 47.54270 2.84721 35087 ft 462 kts 171°
2026-04-21 19:53 47.48072 2.87275 35096 ft 460 kts 171°
2026-04-21 19:54 47.41974 2.89783 35091 ft 458 kts 171°
2026-04-21 19:54 47.35822 2.92307 35099 ft 457 kts 171°
2026-04-21 19:55 47.29741 2.94796 35094 ft 456 kts 171°
2026-04-21 19:55 47.23605 2.97301 35087 ft 456 kts 171°
2026-04-21 19:56 47.17511 2.99783 35090 ft 456 kts 172°
2026-04-21 19:56 47.11405 3.02264 35087 ft 459 kts 172°
2026-04-21 19:57 47.05193 3.04781 35097 ft 464 kts 172°
2026-04-21 19:57 46.98922 3.07317 35084 ft 468 kts 172°
2026-04-21 19:58 46.92597 3.09869 35083 ft 470 kts 172°
2026-04-21 19:58 46.86267 3.12416 35074 ft 473 kts 171°
2026-04-21 19:59 46.79914 3.14966 35069 ft 475 kts 171°
2026-04-21 19:59 46.73553 3.17513 35064 ft 477 kts 171°
2026-04-21 20:00 46.67166 3.20065 35062 ft 478 kts 171°
2026-04-21 20:00 46.60756 3.22619 35063 ft 479 kts 171°
2026-04-21 20:01 46.54331 3.25172 35058 ft 480 kts 171°
2026-04-21 20:01 46.47926 3.27713 35059 ft 475 kts 171°
2026-04-21 20:02 46.42644 3.29803 35061 ft 470 kts 171°
2026-04-21 20:02 46.35305 3.32700 35066 ft 463 kts 171°
2026-04-21 20:03 46.29139 3.35127 35069 ft 458 kts 171°
2026-04-21 20:03 46.23022 3.37529 35066 ft 454 kts 171°
2026-04-21 20:04 46.16918 3.39921 35069 ft 451 kts 171°
2026-04-21 20:04 46.10883 3.42281 35072 ft 449 kts 171°
2026-04-21 20:05 46.04886 3.44620 35065 ft 447 kts 171°
2026-04-21 20:05 45.98800 3.46987 35065 ft 454 kts 171°
2026-04-21 20:06 45.92668 3.49368 35058 ft 463 kts 170°
2026-04-21 20:06 45.86371 3.51808 35047 ft 471 kts 170°
2026-04-21 20:07 45.81804 3.53576 35346 ft 464 kts 170°